Location: Bothwell
(42.3833°S, 147.0000°E)
Time: 04:30:48
(UTC+11:00)

SEEDS - Pass Details

Date: 26 September 2022
Orbit: 577 x 595 km, 97.6° (Epoch: 29 November)

Event Time Altitude Azimuth Distance (km) Brightness Sun altitude
Exits shadow 04:16:13 19° 227° (SW) 1,448 ? -18.7°
Drops below altitude 10° 04:17:39 10° 213° (SSW) 1,926 ? -18.5°
Sets 04:20:02 0° 202° (SSW) 2,836 ? -18.1°
